COSMOS 2476 (744)

Last updated on Thu Oct 16 2025 00:03:18 GMT+0000 (Coordinated Universal Time)

1 37867U 11064A 25288.24262006 .00000044 00000+0 00000+0 0 9996 2 37867 65.1307 81.1495 0022549 230.5990 300.3970 2.13101401108546
UTC large
Height (km)
Speed (km/s)
/
Latitude / Longitude
Inclination (degrees)
Orbital Period (minutes)
Azimuth
Elevation
Range (km)
Doppler Factor

Next 0 passes for location: London (51.5072 / 0.1276)

Sorry there are no passes over London.